FW2734 Weather Reports


time (UTC)temp
F
wind
direction
speed
knots
gust
knots
rain 1hr
in
rain 24hr
in
rain mn
in
humidity
%
barometer
mb
20260507002552 44 0 1.7 4.3 0.00 0.31 0.00 90 1011.1
20260507002052 44 285 1.7 4.3 0.00 0.31 0.00 90 1011.1
20260507001621 44 282 1.7 4.3 0.00 0.31 0.00 90 1010.9
20260507001054 44 272 0.9 4.3 0.00 0.31 0.00 90 1011.0
20260507000551 44 288 1.7 4.3 0.00 0.31 0.00 90 1010.9
20260507000051 44 290 0.9 4.3 0.00 0.31 0.00 90 1010.9
20260506235552 44 278 1.7 4.3 0.00 0.46 0.00 89 1010.9
20260506235052 44 240 1.7 4.3 0.00 0.46 0.00 89 1010.9
20260506234552 45 293 1.7 5.2 0.00 0.46 0.00 89 1010.9
20260506234054 45 284 1.7 5.2 0.00 0.46 0.00 89 1010.9
20260506233552 45 293 1.7 4.3 0.00 0.46 0.00 89 1011.0
20260506233052 45 297 2.6 5.2 0.00 0.46 0.00 88 1010.9
20260506232551 45 285 2.6 5.2 0.00 0.46 0.00 89 1010.9
20260506232049 45 289 1.7 4.3 0.00 0.46 0.00 89 1010.9
20260506231554 45 256 0.9 3.5 0.00 0.46 0.00 89 1010.8
20260506231053 45 275 1.7 3.5 0.00 0.46 0.00 88 1010.8
20260506230552 45 266 0.9 3.5 0.00 0.46 0.00 88 1010.9
20260506230055 45 256 0.9 4.3 0.00 0.46 0.00 88 1010.9
20260506225555 45 248 0.9 4.3 0.00 0.66 0.00 88 1010.9
20260506225052 44 290 1.7 4.3 0.00 0.66 0.00 88 1010.8
20260506224553 44 290 0.9 4.3 0.00 0.66 0.00 89 1010.8
20260506224052 44 267 1.7 4.3 0.00 0.66 0.00 88 1010.8
20260506223551 44 290 0.9 4.3 0.00 0.66 0.00 89 1010.7
20260506223104 44 313 1.7 4.3 0.00 0.66 0.00 89 1010.7
20260506222552 44 307 0.9 4.3 0.00 0.66 0.00 89 1010.7
20260506222054 44 304 0.9 4.3 0.00 0.66 0.00 89 1010.7
20260506221559 44 0 0.9 4.3 0.00 0.66 0.00 89 1010.7
20260506221053 44 343 0.9 3.5 0.00 0.66 0.00 89 1010.7
20260506220548 44 302 0.9 3.5 0.00 0.66 0.00 89 1010.7
20260506220054 45 21 0.0 2.6 0.00 0.66 0.00 89 1010.6
20260506215552 45 322 0.9 2.6 0.00 0.71 0.66 89 1010.6
20260506215051 44 0 0.9 2.6 0.00 0.71 0.66 89 1010.5
20260506214558 44 329 0.0 3.5 0.00 0.71 0.66 89 1010.3
20260506214050 44 5 0.9 3.5 0.00 0.71 0.66 89 1010.2
20260506213550 44 6 1.7 3.5 0.00 0.71 0.66 88 1010.3
20260506213053 44 304 0.9 3.5 0.00 0.71 0.66 88 1010.2
20260506212552 44 0 0.9 4.3 0.00 0.71 0.66 88 1010.2
20260506212056 45 323 0.9 4.3 0.00 0.71 0.66 88 1010.1
20260506211551 44 8 2.6 4.3 0.00 0.71 0.66 88 1009.9
20260506211052 45 8 1.7 5.2 0.00 0.71 0.66 88 1010.0
20260506210552 45 4 1.7 5.2 0.00 0.71 0.66 88 1010.0
20260506210052 45 11 1.7 5.2 0.00 0.71 0.66 87 1010.0
20260506205551 45 42 2.6 4.3 0.00 0.77 0.66 88 1010.0
20260506205051 45 356 1.7 3.5 0.00 0.77 0.66 88 1009.9
20260506204552 45 0 0.0 3.5 0.00 0.77 0.66 87 1009.9
20260506204052 45 27 0.0 3.5 0.00 0.77 0.66 87 1009.9
20260506203551 46 3 1.7 3.5 0.00 0.77 0.66 87 1009.9
20260506203055 46 0 0.9 5.2 0.00 0.77 0.66 87 1009.9
20260506202551 46 11 0.9 5.2 0.00 0.77 0.66 87 1009.9
20260506202048 46 5 0.9 5.2 0.00 0.77 0.66 87 1009.8
20260506201552 46 1 0.0 3.5 0.00 0.77 0.66 87 1009.8
20260506201053 46 9 0.9 4.3 0.00 0.77 0.66 87 1009.7
20260506200552 46 1 1.7 5.2 0.00 0.77 0.66 87 1009.6
20260506200136 46 360 1.7 7.0 0.00 0.77 0.66 87 1009.5
20260506195552 46 347 1.7 7.8 0.00 0.86 0.66 87 1009.4
20260506195052 46 356 4.3 7.8 0.00 0.86 0.66 87 1009.3
20260506194603 46 19 2.6 5.2 0.00 0.86 0.66 88 1009.3
20260506194051 46 19 1.7 4.3 0.00 0.86 0.66 88 1009.2
20260506193551 47 0 2.6 6.1 0.00 0.86 0.66 87 1009.1
20260506193054 47 18 0.9 7.0 0.00 0.86 0.66 87 1009.1
20260506192553 47 349 2.6 7.0 0.00 0.86 0.66 87 1009.1
20260506192054 47 333 0.9 6.1 0.00 0.86 0.66 87 1009.0
20260506191552 47 311 2.6 6.1 0.00 0.86 0.66 87 1008.9
20260506191052 47 335 0.9 6.1 0.00 0.86 0.66 87 1008.8
20260506190553 47 338 1.7 7.8 0.00 0.86 0.66 87 1008.7
20260506190052 47 342 2.6 8.7 0.00 0.86 0.66 87 1008.6
20260506185553 47 328 1.7 8.7 0.00 0.91 0.66 87 1008.5
20260506185052 47 347 2.6 8.7 0.00 0.91 0.66 87 1008.5
20260506184556 47 0 2.6 8.7 0.00 0.91 0.66 86 1008.5
20260506184053 47 12 2.6 9.6 0.00 0.91 0.66 87 1008.5
20260506183552 47 355 3.5 9.6 0.00 0.91 0.66 86 1008.5
20260506183054 47 29 4.3 9.6 0.00 0.91 0.66 86 1008.5
20260506182551 47 333 2.6 6.1 0.00 0.91 0.66 86 1008.5
20260506182053 47 25 2.6 8.7 0.00 0.91 0.66 86 1008.5
20260506181556 47 0 3.5 8.7 0.00 0.91 0.66 86 1008.5
20260506181053 47 3 2.6 6.1 0.00 0.91 0.66 86 1008.3
20260506180552 48 5 1.7 6.1 0.00 0.91 0.66 86 1008.4
20260506180058 48 338 1.7 6.1 0.00 0.91 0.66 86 1008.4
20260506175553 48 319 2.6 6.1 0.00 0.93 0.66 86 1008.3
20260506175051 48 305 0.9 6.1 0.00 0.93 0.66 86 1008.3
20260506174553 48 10 2.6 6.1 0.00 0.93 0.66 86 1008.3
20260506174051 48 355 3.5 6.1 0.00 0.93 0.66 86 1008.3
20260506173551 48 322 2.6 6.1 0.00 0.93 0.66 86 1008.2
20260506173116 48 36 1.7 5.2 0.00 0.93 0.66 86 1008.2
20260506172555 48 16 1.7 7.8 0.00 0.93 0.66 85 1008.0
20260506172048 48 342 3.5 7.8 0.00 0.93 0.66 85 1008.0
20260506171603 48 5 2.6 7.0 0.00 0.93 0.66 85 1007.9
20260506171051 48 356 3.5 10.4 0.00 0.93 0.66 85 1007.8
20260506170549 48 34 4.3 10.4 0.00 0.93 0.66 85 1007.8
20260506170059 48 2 4.3 10.4 0.00 0.93 0.66 85 1007.8
20260506165551 48 6 5.2 9.6 0.00 0.97 0.66 86 1007.9
20260506165051 49 1 5.2 9.6 0.00 0.97 0.66 86 1007.8
20260506164552 49 291 4.3 9.6 0.00 0.97 0.66 86 1007.9
20260506164051 49 329 5.2 9.6 0.00 0.97 0.66 86 1007.9
20260506163551 49 8 3.5 9.6 0.00 0.97 0.66 86 1007.8
20260506163107 49 345 4.3 11.3 0.00 0.97 0.66 86 1007.8
20260506162555 49 354 3.5 11.3 0.00 0.97 0.66 86 1007.8
20260506162053 49 5 4.3 11.3 0.00 0.97 0.66 86 1007.8
20260506161556 49 1 4.3 10.4 0.00 0.97 0.66 85 1007.8
20260506161048 49 28 4.3 7.8 0.00 0.97 0.66 85 1007.8
20260506160553 50 58 4.3 11.3 0.00 0.97 0.66 85 1007.8
20260506160107 50 25 3.5 11.3 0.00 0.97 0.66 85 1007.8
20260506155548 50 39 7.0 11.3 0.00 1.00 0.66 84 1007.8
20260506155048 50 356 6.1 11.3 0.00 1.00 0.66 84 1007.8
20260506154553 50 11 5.2 11.3 0.00 1.00 0.66 85 1007.7
20260506154052 50 360 6.1 11.3 0.00 1.00 0.66 85 1007.7
20260506153552 50 30 4.3 10.4 0.00 1.00 0.66 86 1007.7
20260506153057 50 333 5.2 12.2 0.00 1.00 0.66 85 1007.6
20260506152552 50 351 5.2 12.2 0.00 1.00 0.66 84 1007.6
20260506152048 50 25 7.0 11.3 0.00 1.00 0.66 85 1007.6
20260506151554 50 4 5.2 12.2 0.00 1.00 0.66 85 1007.5
20260506151051 50 4 6.1 12.2 0.00 1.00 0.66 84 1007.5
20260506150549 50 333 4.3 8.7 0.00 1.00 0.66 84 1007.5
20260506150104 51 16 4.3 11.3 0.00 1.00 0.66 84 1007.5
20260506145555 51 73 4.3 11.3 0.00 1.06 0.66 83 1007.5
20260506145048 51 5 5.2 13.0 0.00 1.06 0.66 83 1007.4
20260506144553 51 356 5.2 13.0 0.00 1.06 0.66 84 1007.4
20260506144048 51 360 7.0 13.0 0.00 1.06 0.66 85 1007.4
20260506143550 50 329 5.2 9.6 0.00 1.06 0.66 86 1007.4
20260506143055 50 356 3.5 9.6 0.00 1.06 0.66 86 1007.6
20260506142548 50 338 3.5 10.4 0.00 1.06 0.66 85 1007.5
20260506142050 50 290 3.5 10.4 0.00 1.06 0.66 85 1007.5
20260506141549 51 344 4.3 10.4 0.00 1.06 0.66 85 1007.5
20260506141052 51 326 3.5 8.7 0.00 1.06 0.66 86 1007.4
20260506140555 50 343 2.6 10.4 0.00 1.06 0.66 87 1007.4
20260506140053 50 27 3.5 10.4 0.00 1.06 0.66 87 1007.5
20260506135551 49 332 6.1 10.4 0.00 1.13 0.66 86 1007.4
20260506135051 50 11 2.6 9.6 0.00 1.13 0.66 86 1007.3
20260506134615 50 4 4.3 9.6 0.00 1.13 0.66 86 1007.4
20260506134055 50 348 6.1 9.6 0.00 1.13 0.66 85 1007.3
20260506133552 51 338 2.6 10.4 0.00 1.13 0.66 85 1007.4
20260506133051 51 331 5.2 10.4 0.00 1.13 0.66 85 1007.3
20260506132551 51 34 5.2 10.4 0.00 1.13 0.66 85 1007.3
20260506132051 50 352 4.3 9.6 0.00 1.13 0.66 87 1007.3
20260506131607 50 341 5.2 9.6 0.00 1.13 0.66 86 1007.3
20260506131048 50 17 4.3 9.6 0.00 1.13 0.66 86 1007.3
20260506130551 50 6 4.3 10.4 0.00 1.13 0.66 87 1007.2
20260506130052 50 352 3.5 10.4 0.00 1.13 0.66 87 1007.2
20260506125548 50 338 4.3 10.4 0.00 1.13 0.66 87 1007.2
20260506125048 50 281 2.6 7.8 0.00 1.13 0.66 87 1007.1
20260506124554 50 82 3.5 8.7 0.00 1.13 0.66 87 1007.1
20260506124048 50 319 1.7 8.7 0.00 1.13 0.66 88 1007.0
20260506123548 49 306 3.5 8.7 0.00 1.13 0.66 87 1007.0
20260506123051 49 342 4.3 8.7 0.00 1.13 0.66 87 1006.9
20260506122548 49 0 4.3 8.7 0.00 1.13 0.66 87 1006.8
20260506122050 49 319 3.5 7.8 0.00 1.13 0.66 87 1006.9
20260506121554 49 2 2.6 8.7 0.00 1.13 0.66 87 1006.8
20260506121050 49 287 1.7 8.7 0.00 1.13 0.66 87 1006.8
20260506120550 49 8 1.7 7.8 0.00 1.13 0.66 87 1006.8
20260506120055 50 340 3.5 7.8 0.00 1.13 0.66 87 1006.7
20260506115552 50 305 1.7 7.8 0.00 1.13 0.66 87 1006.7
20260506115048 50 342 3.5 8.7 0.00 1.13 0.66 87 1006.6
20260506114553 50 8 4.3 8.7 0.00 1.13 0.66 88 1006.6
20260506114052 50 16 3.5 10.4 0.00 1.13 0.66 87 1006.5
20260506113551 50 13 4.3 10.4 0.00 1.13 0.66 87 1006.5
20260506113053 50 356 3.5 10.4 0.00 1.13 0.66 87 1006.4
20260506112551 50 9 6.1 9.6 0.00 1.13 0.66 87 1006.5
20260506112050 50 23 4.3 9.6 0.00 1.13 0.66 87 1006.5
20260506111610 50 360 3.5 9.6 0.00 1.13 0.66 87 1006.5
20260506111050 50 360 4.3 9.6 0.00 1.13 0.66 87 1006.4
20260506110553 50 338 5.2 9.6 0.00 1.13 0.66 87 1006.2
20260506110053 50 345 5.2 8.7 0.00 1.13 0.66 87 1006.2
20260506105552 50 18 4.3 8.7 0.00 1.13 0.66 87 1006.4
20260506105051 50 340 3.5 7.0 0.00 1.13 0.66 88 1006.3
20260506104551 50 5 2.6 7.8 0.00 1.13 0.66 88 1006.1
20260506104055 50 63 4.3 7.8 0.00 1.13 0.66 88 1006.2
20260506103551 50 18 4.3 7.8 0.00 1.13 0.66 89 1006.1
20260506103051 50 32 3.5 8.7 0.00 1.13 0.66 89 1006.2
20260506102551 50 34 3.5 8.7 0.00 1.13 0.66 89 1006.2
20260506102053 49 8 3.5 7.0 0.00 1.13 0.66 89 1006.2
20260506101553 49 6 2.6 9.6 0.00 1.13 0.66 89 1006.2
20260506101051 49 23 2.6 9.6 0.00 1.13 0.66 89 1006.2
20260506100548 49 5 3.5 9.6 0.00 1.13 0.66 89 1006.1
20260506100051 49 310 4.3 7.8 0.00 1.13 0.66 89 1006.0
20260506095551 49 50 3.5 7.0 0.00 1.13 0.66 89 1005.9
20260506095050 49 353 2.6 8.7 0.00 1.13 0.66 90 1006.0
20260506094553 49 23 2.6 8.7 0.00 1.13 0.66 89 1005.9
20260506094050 49 317 3.5 8.7 0.00 1.13 0.66 89 1005.8
20260506093554 50 345 2.6 7.8 0.00 1.13 0.66 89 1005.9
20260506093055 50 331 2.6 7.8 0.00 1.13 0.66 89 1005.8
20260506092551 51 292 2.6 8.7 0.00 1.13 0.66 90 1005.7
20260506092053 50 6 3.5 10.4 0.00 1.13 0.66 90 1005.7
20260506091552 50 340 5.2 10.4 0.00 1.13 0.66 90 1005.7
20260506091050 50 352 4.3 10.4 0.00 1.13 0.66 90 1005.7
20260506090552 49 39 5.2 10.4 0.00 1.13 0.66 90 1005.7
20260506090051 49 18 5.2 10.4 0.00 1.13 0.66 91 1005.7
20260506085551 50 1 4.3 8.7 0.00 1.13 0.66 91 1005.6
20260506085051 50 340 3.5 8.7 0.00 1.13 0.66 92 1005.5
20260506084553 50 55 4.3 8.7 0.00 1.13 0.66 92 1005.6
20260506084053 49 19 2.6 7.8 0.00 1.13 0.66 92 1005.5
20260506083548 49 7 3.5 7.0 0.00 1.13 0.66 92 1005.6
20260506083115 48 6 3.5 7.8 0.00 1.13 0.66 92 1005.6
20260506082550 48 308 1.7 7.8 0.00 1.13 0.66 92 1005.6
20260506082052 48 20 3.5 7.8 0.01 1.13 0.66 92 1005.6
20260506081553 48 16 3.5 7.8 0.01 1.13 0.66 92 1005.5
20260506081052 48 330 3.5 7.8 0.01 1.13 0.66 92 1005.5
20260506080552 48 330 2.6 7.8 0.01 1.13 0.66 92 1005.5
20260506073054 48 333 3.5 7.8 0.00 1.12 0.65 93 1005.2
20260506072551 48 327 1.7 6.1 0.00 1.12 0.65 93 1005.3
20260506072050 48 356 2.6 6.1 0.00 1.11 0.64 93 1005.2
20260506071556 48 303 1.7 7.0 0.00 1.11 0.64 93 1005.1
20260506071048 48 20 1.7 7.8 0.00 1.11 0.64 93 1005.1
20260506070552 48 345 4.3 7.8 0.00 1.11 0.64 93 1005.1
20260506070121 48 2 3.5 7.0 0.00 1.11 0.64 93 1005.0
20260506062050 48 6 1.7 7.0 0.00 1.11 0.64 93 1004.8
20260506061557 48 13 3.5 7.0 0.00 1.11 0.64 93 1004.8
20260506061051 48 7 3.5 6.1 0.00 1.11 0.64 94 1004.8
20260506060552 48 335 2.6 6.1 0.00 1.11 0.64 93 1004.6
20260506051050 48 360 0.9 3.5 0.00 1.11 0.63 94 1004.4
20260506050550 48 51 0.9 4.3 0.00 1.11 0.63 93 1004.4
20260506045052 48 6 2.6 5.2 0.01 1.11 0.63 94 1004.4
20260506044602 48 356 2.6 5.2 0.01 1.11 0.63 94 1004.4
20260506044048 48 1 2.6 6.1 0.01 1.11 0.63 94 1004.4
20260506043551 48 13 2.6 6.1 0.02 1.11 0.63 94 1004.4
20260506043059 48 8 1.7 4.3 0.02 1.11 0.63 94 1004.3
20260506042551 48 10 1.7 4.3 0.03 1.11 0.63 94 1004.5
20260506042050 48 34 1.7 3.5 0.03 1.11 0.63 94 1004.5
20260506041619 48 296 0.9 3.5 0.04 1.11 0.63 94 1004.5
20260506041048 48 297 0.9 3.5 0.05 1.10 0.62 93 1004.5
20260506040552 48 322 0.9 4.3 0.05 1.10 0.62 93 1004.5
20260506040059 48 300 1.7 4.3 0.06 1.10 0.62 93 1004.5
20260506035553 48 262 0.9 4.3 0.07 1.10 0.62 93 1004.5
20260506035051 48 0 1.7 4.3 0.07 1.09 0.62 93 1004.6
20260506034559 48 264 1.7 3.5 0.07 1.09 0.62 93 1004.6
20260506034050 49 0 0.9 3.5 0.07 1.09 0.62 94 1004.6
20260506033550 49 234 0.0 2.6 0.07 1.08 0.61 94 1004.6
20260506033055 49 0 0.0 1.7 0.09 1.08 0.61 94 1004.5
20260506032552 49 0 0.0 1.7 0.08 1.07 0.60 94 1004.6
20260506032053 49 203 0.0 2.6 0.08 1.07 0.59 94 1004.6
20260506031550 49 255 0.9 2.6 0.07 1.06 0.59 93 1004.6
20260506031049 49 0 0.9 2.6 0.06 1.04 0.57 94 1004.6
20260506030551 49 0 0.0 3.5 0.06 1.03 0.56 94 1004.6
20260506030059 49 283 0.9 3.5 0.07 1.03 0.56 94 1004.6
20260506025550 49 339 1.7 3.5 0.06 1.03 0.55 93 1004.8
20260506025051 49 281 0.9 4.3 0.05 1.03 0.55 93 1004.6
20260506024605 49 0 0.9 4.3 0.04 1.02 0.54 93 1004.7
20260506024048 49 0 0.0 2.6 0.04 1.02 0.54 94 1004.7
20260506023548 49 0 0.0 6.1 0.03 1.01 0.53 94 1004.6
20260506023056 49 0 0.0 6.1 0.03 1.00 0.51 94 1004.6
20260506022550 49 333 1.7 6.1 0.03 1.00 0.51 93 1004.6
20260506022050 49 0 0.9 5.2 0.02 0.99 0.51 93 1004.6
20260506021557 49 309 2.6 5.2 0.03 0.99 0.51 93 1004.6
20260506021051 49 47 1.7 5.2 0.03 0.99 0.51 93 1004.6
20260506020551 49 27 1.7 5.2 0.03 0.98 0.50 93 1004.6
20260506020108 49 23 0.9 7.0 0.03 0.97 0.49 93 1004.6
20260506015551 49 293 3.5 8.7 0.04 0.97 0.49 93 1004.6
20260506015051 49 338 2.6 8.7 0.05 0.97 0.49 93 1004.6
20260506014612 49 41 2.6 7.0 0.07 0.97 0.49 93 1004.7
20260506014048 49 49 3.5 7.0 0.08 0.97 0.49 93 1004.6
20260506013551 49 15 1.7 7.0 0.12 0.97 0.49 93 1004.7
20260506013059 49 0 0.9 5.2 0.13 0.96 0.48 93 1004.8
20260506012548 49 351 0.9 4.3 0.14 0.96 0.48 93 1004.8
20260506012048 50 333 1.7 4.3 0.14 0.96 0.48 93 1004.8
20260506011623 50 356 1.7 6.1 0.13 0.96 0.48 93 1004.8
20260506011048 50 332 2.6 6.1 0.12 0.95 0.47 93 1004.8
20260506010553 50 320 0.0 4.3 0.11 0.94 0.46 93 1004.8
20260506010053 50 9 1.7 4.3 0.10 0.92 0.44 93 1004.8
20260506005550 50 356 1.7 5.2 0.11 0.92 0.44 93 1004.9
20260506005050 50 3 2.6 5.2 0.10 0.92 0.44 93 1004.9
20260506004608 50 350 2.6 5.2 0.08 0.90 0.42 93 1004.9
20260506004050 50 318 1.7 4.3 0.08 0.88 0.40 93 1005.0
20260506003550 50 347 2.6 4.3 0.06 0.84 0.36 93 1005.1
20260506003100 50 24 1.7 4.3 0.07 0.83 0.35 93 1005.1